Tracking 18980 objects as of 23-Feb-2018
HD Live streaming from Space Station
objects crossing your sky now

COSMOS 2251 DEB

Track COSMOS 2251 DEB now!
10-day predictions


NORAD ID: 35448
Int'l Code: 1993-036AKS
Perigee: 755.2 km
Apogee: 772.6 km
Inclination: 73.9 °
Period: 100.0 minutes
Semi major axis: 7134 km
RCS: 0.0138 m2 (small)
Launch date: June 16, 1993
Source: Commonwealth of Independent States (former USSR) (CIS)
Launch site: PLESETSK MISSILE AND SPACE COMPLEX (PKMTR)

Note: This is SATELLITE DEBRIS
aabbcc
Your satellite tracking list
Your tracking list is empty




NASA's NSSDC Master Catalog

Two Line Element Set (TLE):
1 35448U 93036AKS 18053.33571678 +.00000396 +00000-0 +13294-3 0  9992
2 35448 073.9092 031.2021 0012161 081.8879 278.3654 14.40525274461940
Source of the keplerian elements: AFSPC